Miscellaneous Local Product
Issued by NWS Hastings, NE

Home | Current Version | Previous Version | Text Only | Print | Product List | Glossary Off
Versions: 1 2 3 4 5 6 7 8 9 10 11 12 13 14 15 16 17 18 19 20 21 22 23 24 25 26 27 28 29 30 31 32 33 34 35 36 37 38 39 40 41 42 43 44 45 46 47 48 49 50

000
AXUS43 KGID 281502
MISGRI

GID CWA HOURLY WEATHER ROUNDUP
NATIONAL WEATHER SERVICE HASTINGS NE
1000 AM CDT SUN AUG 28 2016

NOTE: "FAIR" INDICATES FEW OR NO CLOUDS BELOW 12,000 FEET WITH NO
SIGNIFICANT WEATHER AND/OR OBSTRUCTIONS TO VISIBILITY.

...SOUTH CENTRAL NEBRASKA...

CITY           SKY/WX    TMP DP  RH WIND       PRES   REMARKS
GRAND ISLAND   PTSUNNY   79  67  66 S9        30.10R
HASTINGS       MOSUNNY   76  68  76 S8        30.10S
KEARNEY        PTSUNNY   73  66  78 S5        30.09R
ORD            MOSUNNY   76  66  71 S14       30.07R
YORK           MOSUNNY   77  72  83 S9        30.10S
AURORA         CLOUDY    77  71  83 S6        30.09F
LEXINGTON      MOSUNNY   73  64  74 S8        30.10R
HOLDREGE       CLOUDY    71  65  83 S7        30.10S
HEBRON         MOSUNNY   78  71  77 SW6       30.10R

...NEBRASKA PANHANDLE...

CITY           SKY/WX    TMP DP  RH WIND       PRES   REMARKS
CHADRON        SUNNY     77  44  30 SW9       30.02S
ALLIANCE       SUNNY     70  59  68 S9        30.08R
SCOTTSBLUFF    SUNNY     67  57  70 CALM      30.10R
SIDNEY         SUNNY     70  57  63 SW9       30.14R

...WESTERN AND NORTH CENTRAL NEBRASKA...

CITY           SKY/WX    TMP DP  RH WIND       PRES   REMARKS
VALENTINE      NOT AVBL
AINSWORTH      SUNNY     75  67  75 S9        30.05S
ONEILL         SUNNY     78  66  65 S15       30.05S
BROKEN BOW     MOSUNNY   74  66  76 S10       30.08R
IMPERIAL       SUNNY     71  59  65 SW9       30.10S
NORTH PLATTE   SUNNY     74  64  71 S10       30.09R
MCCOOK         PTSUNNY   72  64  76 CALM      30.10R

...EASTERN NEBRASKA...

CITY           SKY/WX    TMP DP  RH WIND       PRES   REMARKS
NORFOLK        SUNNY     77  68  73 S13       30.08R
SO SIOUX CITY  MOSUNNY   75  69  81 SE9       30.08S
TEKAMAH        SUNNY     75  70  84 S6        30.09S
COLUMBUS       SUNNY     75  64  69 S7        30.10R
ALBION         MOSUNNY   74  68  81 S7        30.09S
OMAHA EPPLEY   PTSUNNY   78  69  73 S9        30.10S
OFFUTT AFB     MOSUNNY   77  73  85 E7        30.10R
MILLARD        SUNNY     78  71  81 SE5       30.10R
LINCOLN        PTSUNNY   78  70  76 S6        30.10S
NEBRASKA CITY  SUNNY     76  73  88 SE5       30.11S
BEATRICE       SUNNY     78  70  77 S6        30.10S
FALLS CITY     SUNNY     79  73  82 SE5       30.11R

...NORTHERN KANSAS...

CITY           SKY/WX    TMP DP  RH WIND       PRES   REMARKS
GOODLAND       CLOUDY    65  56  72 S8        30.13R
HILL CITY      MOSUNNY   72  63  73 SW3       30.11R
NORTON         SUNNY     70  61  73 S6        30.10S
SMITH CENTER   SUNNY     79  66  65 CALM      30.09S
BELOIT         SUNNY     73  70  88 SE6       30.07R
HAYS           SUNNY     75  61  60 S12       30.09R
RUSSELL        CLOUDY    78  67  68 S9        30.08R
CONCORDIA      SUNNY     79  69  71 S10       30.10R
SALINA         SUNNY     81  71  71 S7        30.09S
TOPEKA         SUNNY     80  72  76 S6        30.11S



USA.gov is the U.S. government's official web portal to all federal, state and local government web resources and services.